DW1824 Weather Reports


Display with metric or nautical units.
time (UTC)temp
F
wind
direction
speed
MPH
gust
MPH
rain 1hr
in
rain 24hr
in
rain mn
in
humidity
%
barometer
mb
20180817104315 76 148 1.0 2.0 0.00 0.01 0.00 96 1018.2
20180817103820 76 168 1.0 2.0 0.00 0.01 0.00 96 1018.1
20180817103316 76 173 1.0 2.0 0.00 0.01 0.00 96 1018.0
20180817102826 76 191 1.0 1.0 0.00 0.01 0.00 96 1018.0
20180817102316 76 191 0.0 1.0 0.00 0.01 0.00 96 1017.8
20180817101821 76 191 0.0 1.0 0.00 0.01 0.00 96 1017.8
20180817101314 76 191 0.0 3.0 0.00 0.01 0.00 96 1017.9
20180817100821 76 191 0.0 3.0 0.00 0.01 0.00 96 1017.9
20180817100313 76 191 1.0 3.0 0.00 0.01 0.00 96 1017.8
20180817095823 76 191 1.0 3.0 0.00 0.01 0.00 96 1017.7
20180817095314 76 191 1.0 3.0 0.00 0.01 0.00 96 1017.6
20180817094824 76 191 1.0 3.0 0.00 0.01 0.00 96 1017.6
20180817094316 76 191 0.0 1.0 0.00 0.01 0.00 96 1017.7
20180817093822 76 191 0.0 1.0 0.00 0.01 0.00 95 1017.7
20180817093315 76 191 0.0 2.0 0.00 0.01 0.00 95 1017.8
20180817092825 76 191 0.0 3.0 0.00 0.01 0.00 95 1017.8
20180817092316 76 191 2.0 3.0 0.00 0.01 0.00 95 1017.8
20180817091822 76 191 2.0 3.0 0.00 0.01 0.00 95 1017.8
20180817091315 76 191 1.0 2.0 0.00 0.01 0.00 95 1017.8
20180817090804 76 191 0.0 1.0 0.00 0.01 0.00 95 1017.7
20180817090317 76 191 0.0 1.0 0.00 0.01 0.00 95 1017.7
20180817085807 77 191 0.0 1.0 0.00 0.01 0.00 95 1017.7
20180817085318 77 191 0.0 1.0 0.00 0.01 0.00 95 1017.8
20180817084804 77 194 0.0 1.0 0.00 0.01 0.00 95 1017.7
20180817084318 77 194 0.0 1.0 0.00 0.01 0.00 95 1017.6
20180817083824 77 194 0.0 0.0 0.00 0.01 0.00 95 1017.7
20180817083316 77 194 0.0 0.0 0.00 0.01 0.00 95 1017.7
20180817082825 77 194 0.0 0.0 0.00 0.01 0.00 95 1017.6
20180817082320 77 194 0.0 1.0 0.00 0.01 0.00 95 1017.6
20180817081806 77 195 0.0 1.0 0.00 0.01 0.00 95 1017.5
20180817081320 77 194 0.0 1.0 0.00 0.01 0.00 94 1017.6
20180817080805 77 195 0.0 2.0 0.00 0.01 0.00 94 1017.6
20180817080317 77 195 0.0 1.0 0.00 0.01 0.00 94 1017.6
20180817075806 77 194 0.0 1.0 0.00 0.01 0.00 94 1017.5
20180817075317 77 195 0.0 1.0 0.00 0.01 0.00 94 1017.5
20180817074823 78 195 0.0 1.0 0.00 0.01 0.00 94 1017.5
20180817074316 78 195 0.0 1.0 0.00 0.01 0.00 94 1017.6
20180817073806 78 194 0.0 1.0 0.00 0.01 0.00 94 1017.6
20180817073319 78 194 0.0 0.0 0.00 0.01 0.00 94 1017.6
20180817072807 78 201 0.0 3.0 0.00 0.01 0.00 94 1017.6
20180817072318 78 202 0.0 3.0 0.00 0.01 0.00 94 1017.6
20180817071825 78 202 1.0 3.0 0.00 0.01 0.00 94 1017.5
20180817071317 78 182 1.0 3.0 0.00 0.01 0.00 93 1017.5
20180817070823 78 182 2.0 3.0 0.00 0.01 0.00 93 1017.6
20180817070315 78 182 1.0 3.0 0.00 0.01 0.00 94 1017.6
20180817065809 78 187 1.0 4.0 0.00 0.01 0.00 93 1017.7
20180817065320 78 183 2.0 5.0 0.00 0.01 0.00 93 1017.6
20180817064806 78 190 1.0 5.0 0.00 0.01 0.00 93 1017.7
20180817064319 78 174 2.0 5.0 0.00 0.01 0.00 93 1017.8
20180817063805 78 183 3.0 5.0 0.00 0.01 0.00 93 1017.7
20180817063318 79 185 2.0 4.0 0.00 0.01 0.00 93 1017.8
20180817062807 79 185 1.0 4.0 0.00 0.01 0.00 93 1017.9
20180817062317 79 181 2.0 6.0 0.00 0.01 0.00 93 1017.9
20180817061804 79 189 2.0 5.0 0.00 0.01 0.00 92 1017.9
20180817061322 79 204 2.0 5.0 0.00 0.01 0.00 92 1017.9
20180817060807 79 186 1.0 4.0 0.00 0.01 0.00 92 1017.8
20180817060320 79 167 2.0 5.0 0.00 0.01 0.00 92 1017.9
20180817055826 79 172 2.0 5.0 0.00 0.01 0.00 92 1017.9
20180817055317 79 174 2.0 4.0 0.00 0.01 0.00 92 1018.0
20180817054824 79 190 2.0 4.0 0.00 0.01 0.00 92 1018.1
20180817054317 79 199 2.0 5.0 0.00 0.01 0.00 91 1018.1
20180817053823 79 171 2.0 5.0 0.00 0.01 0.00 91 1018.2
20180817053315 79 183 3.0 5.0 0.00 0.01 0.00 91 1018.2
20180817052817 79 184 2.0 5.0 0.00 0.01 0.00 91 1018.1
20180817052312 80 180 2.0 5.0 0.00 0.01 0.00 91 1018.2
20180817051811 80 183 2.0 5.0 0.00 0.01 0.00 91 1018.3
20180817051324 80 194 2.0 5.0 0.00 0.01 0.00 90 1018.3
20180817050811 80 189 1.0 5.0 0.00 0.01 0.00 90 1018.3
20180817050324 80 191 2.0 4.0 0.00 0.01 0.00 90 1018.4
20180817045813 80 192 2.0 6.0 0.00 0.01 0.01 90 1018.4
20180817045323 80 177 2.0 6.0 0.00 0.01 0.01 89 1018.4
20180817044808 80 191 2.0 4.0 0.00 0.01 0.01 89 1018.4
20180817044321 80 174 2.0 8.0 0.00 0.01 0.01 89 1018.3
20180817043811 80 187 3.0 9.0 0.00 0.01 0.01 89 1018.3
20180817043304 81 165 3.0 6.0 0.00 0.01 0.01 88 1018.2
20180817042813 81 152 2.0 6.0 0.00 0.01 0.01 88 1018.3
20180817042323 81 196 3.0 7.0 0.00 0.01 0.01 88 1018.3
20180817041809 81 147 4.0 7.0 0.00 0.01 0.01 88 1018.3
20180817041322 81 173 3.0 6.0 0.00 0.01 0.01 87 1018.4
20180817040809 81 186 3.0 5.0 0.00 0.01 0.01 87 1018.4
20180817040322 81 160 3.0 5.0 0.00 0.01 0.01 86 1018.4
20180817035811 81 168 2.0 4.0 0.00 0.01 0.01 86 1018.5
20180817035305 81 161 2.0 3.0 0.00 0.01 0.01 85 1018.4
20180817034812 81 171 2.0 4.0 0.00 0.01 0.01 85 1018.5
20180817034305 81 169 2.0 4.0 0.00 0.01 0.01 84 1018.5
20180817033811 82 180 2.0 4.0 0.00 0.01 0.01 84 1018.5
20180817033324 82 179 2.0 4.0 0.00 0.01 0.01 84 1018.5
20180817032814 82 168 2.0 4.0 0.00 0.01 0.01 83 1018.4
20180817032304 82 182 2.0 4.0 0.00 0.01 0.01 82 1018.4
20180817031810 82 185 2.0 3.0 0.00 0.01 0.01 82 1018.4
20180817031307 83 185 2.0 6.0 0.00 0.01 0.01 81 1018.3
20180817030812 83 172 3.0 7.0 0.00 0.01 0.01 81 1018.2
20180817030305 83 160 3.0 8.0 0.00 0.01 0.01 81 1018.1
20180817025814 83 216 4.0 10.0 0.00 0.01 0.01 80 1018.1
20180817025304 83 187 4.0 10.0 0.00 0.01 0.01 80 1018.1
20180817024812 83 172 3.0 9.0 0.00 0.01 0.01 79 1018.0
20180817024304 83 204 4.0 10.0 0.00 0.01 0.01 78 1018.0
20180817023810 83 168 4.0 8.0 0.00 0.01 0.01 78 1017.9
20180817023323 84 183 4.0 8.0 0.00 0.01 0.01 77 1017.9
20180817022816 84 189 3.0 7.0 0.00 0.01 0.01 76 1017.8
20180817022307 84 172 3.0 5.0 0.00 0.01 0.01 76 1017.7
20180817021813 84 183 3.0 6.0 0.00 0.01 0.01 75 1017.6
20180817021306 84 146 2.0 5.0 0.00 0.01 0.01 75 1017.4
20180817020812 84 168 2.0 7.0 0.00 0.01 0.01 74 1017.2
20180817020305 85 166 3.0 7.0 0.00 0.01 0.01 74 1017.2
20180817015813 85 172 3.0 7.0 0.00 0.01 0.01 73 1017.1
20180817015324 85 159 3.0 9.0 0.00 0.01 0.01 73 1017.0
20180817014810 85 179 4.0 9.0 0.00 0.01 0.01 72 1017.0
20180817014307 85 197 4.0 8.0 0.00 0.01 0.01 72 1016.9
20180817013812 86 154 4.0 12.0 0.00 0.01 0.01 72 1016.9
20180817013305 86 170 4.0 11.0 0.00 0.01 0.01 71 1016.8
20180817012834 86 167 5.0 10.0 0.00 0.01 0.01 71 1016.7
20180817012323 86 164 5.0 13.0 0.00 0.01 0.01 71 1016.5
20180817011809 87 172 6.0 12.0 0.00 0.01 0.01 70 1016.4
20180817011322 87 179 4.0 9.0 0.00 0.01 0.01 69 1016.3
20180817010809 87 177 4.0 10.0 0.00 0.01 0.01 67 1016.2
20180817010321 88 197 5.0 11.0 0.00 0.01 0.01 66 1016.2
20180817005815 88 204 6.0 11.0 0.00 0.01 0.01 65 1016.1
20180817005305 88 192 7.0 14.0 0.00 0.01 0.01 65 1016.0
20180817004814 89 179 4.0 15.0 0.00 0.01 0.01 65 1015.9
20180817004306 89 193 6.0 15.0 0.00 0.01 0.01 64 1015.8
20180817003811 89 185 5.0 14.0 0.00 0.01 0.01 63 1015.8
20180817003324 89 182 6.0 14.0 0.00 0.01 0.01 62 1015.7
20180817002811 90 131 7.0 14.0 0.00 0.01 0.01 62 1015.6
20180817002319 90 177 5.0 13.0 0.00 0.01 0.01 62 1015.7
20180817001824 90 177 8.0 13.0 0.00 0.01 0.01 62 1015.6
20180817001321 90 160 6.0 14.0 0.00 0.01 0.01 62 1015.6
20180817000807 90 207 6.0 14.0 0.01 0.01 0.01 62 1015.6
20180817000320 90 149 9.0 15.0 0.01 0.01 0.01 62 1015.6
20180816235826 90 174 7.0 16.0 0.01 0.01 0.01 63 1015.6
20180816235317 91 166 7.0 16.0 0.01 0.01 0.01 63 1015.5
20180816234820 91 197 7.0 14.0 0.01 0.01 0.01 64 1015.5
20180816234314 91 197 7.0 14.0 0.01 0.01 0.01 64 1015.5
20180816233818 90 164 7.0 10.0 0.01 0.01 0.01 67 1015.5
20180816233310 90 173 4.0 9.0 0.01 0.01 0.01 69 1015.5
20180816232820 89 153 5.0 9.0 0.01 0.01 0.01 70 1015.6
20180816232309 89 161 4.0 12.0 0.01 0.01 0.01 71 1015.5
20180816231814 88 117 5.0 12.0 0.01 0.01 0.01 72 1015.5
20180816231306 88 172 5.0 10.0 0.01 0.01 0.01 74 1015.6
20180816230812 89 131 4.0 12.0 0.00 0.00 0.00 74 1015.6
20180816230305 89 152 7.0 11.0 0.00 0.00 0.00 71 1015.6
20180816225812 90 147 7.0 11.0 0.00 0.00 0.00 68 1015.6
20180816225323 90 147 5.0 10.0 0.00 0.00 0.00 68 1015.7
20180816224809 90 160 6.0 15.0 0.00 0.00 0.00 66 1015.7
20180816224326 92 160 8.0 15.0 0.00 0.00 0.00 62 1015.7
20180816223807 94 185 4.0 8.0 0.00 0.00 0.00 55 1015.6
20180816223320 94 154 4.0 9.0 0.00 0.00 0.00 54 1015.5
20180816222824 94 191 5.0 9.0 0.00 0.00 0.00 53 1015.6
20180816222310 94 174 5.0 9.0 0.00 0.00 0.00 53 1015.6
20180816221816 95 106 6.0 12.0 0.00 0.00 0.00 52 1015.5
20180816221309 96 160 6.0 12.0 0.00 0.00 0.00 52 1015.6
20180816220813 96 189 6.0 11.0 0.00 0.00 0.00 51 1015.7
20180816220306 96 112 4.0 13.0 0.00 0.00 0.00 50 1015.7
20180816215819 96 195 7.0 14.0 0.00 0.00 0.00 50 1015.7
20180816215310 96 186 5.0 12.0 0.00 0.00 0.00 51 1015.7
20180816214817 95 184 4.0 13.0 0.00 0.00 0.00 49 1015.7
20180816214310 95 187 6.0 13.0 0.00 0.00 0.00 53 1015.8
20180816213817 95 179 5.0 13.0 0.00 0.00 0.00 52 1015.9
20180816213309 95 193 6.0 10.0 0.00 0.00 0.00 51 1015.9
20180816212818 95 150 6.0 10.0 0.00 0.00 0.00 52 1015.8
20180816212308 95 223 5.0 10.0 0.00 0.00 0.00 52 1015.9
20180816211814 95 193 3.0 10.0 0.00 0.00 0.00 54 1015.9
20180816211311 95 158 5.0 10.0 0.00 0.00 0.00 53 1016.0
20180816210817 95 190 7.0 10.0 0.00 0.00 0.00 53 1016.0
20180816210309 95 146 5.0 14.0 0.00 0.00 0.00 53 1016.0
20180816205819 95 180 6.0 14.0 0.00 0.00 0.00 53 1016.0
20180816205309 95 174 6.0 12.0 0.00 0.00 0.00 52 1016.2
20180816204816 95 159 5.0 12.0 0.00 0.00 0.00 55 1016.2
20180816204309 95 158 5.0 14.0 0.00 0.00 0.00 54 1016.3
20180816203815 95 205 7.0 14.0 0.00 0.00 0.00 54 1016.3
20180816203312 95 185 5.0 17.0 0.00 0.00 0.00 55 1016.4
20180816202821 95 168 9.0 17.0 0.00 0.00 0.00 54 1016.4
20180816202311 95 175 6.0 15.0 0.00 0.00 0.00 56 1016.5
20180816201818 94 166 6.0 11.0 0.00 0.00 0.00 57 1016.5
20180816201311 95 148 6.0 8.0 0.00 0.00 0.00 54 1016.5
20180816200818 95 140 5.0 10.0 0.00 0.00 0.00 55 1016.5
20180816200311 96 142 6.0 12.0 0.00 0.00 0.00 54 1016.7
20180816195819 96 186 7.0 12.0 0.00 0.00 0.00 54 1016.7
20180816195309 96 172 5.0 11.0 0.00 0.00 0.00 52 1016.8
20180816194821 96 186 4.0 16.0 0.00 0.00 0.00 54 1016.9
20180816194313 95 147 7.0 21.0 0.00 0.00 0.00 55 1016.8
20180816193819 96 172 11.0 21.0 0.00 0.00 0.00 53 1016.8
20180816193312 97 207 4.0 13.0 0.00 0.00 0.00 47 1016.7
20180816192821 97 182 7.0 13.0 0.00 0.00 0.00 48 1016.7
20180816192312 97 235 2.0 8.0 0.00 0.00 0.00 49 1016.8
20180816191817 96 165 4.0 8.0 0.00 0.00 0.00 51 1016.8
20180816191310 96 170 4.0 9.0 0.00 0.00 0.00 50 1016.8
20180816190816 96 165 5.0 9.0 0.00 0.00 0.00 49 1016.7
20180816190312 96 146 5.0 10.0 0.00 0.00 0.00 52 1016.9
20180816185821 95 172 4.0 10.0 0.00 0.00 0.00 51 1017.0
20180816185312 96 152 5.0 9.0 0.00 0.00 0.00 51 1017.0
20180816184818 96 200 4.0 12.0 0.00 0.00 0.00 52 1017.0
20180816184311 96 201 6.0 12.0 0.00 0.00 0.00 54 1017.0
20180816183817 95 209 5.0 10.0 0.00 0.00 0.00 52 1016.9
20180816183309 95 177 3.0 11.0 0.00 0.00 0.00 54 1016.9
20180816182818 95 173 5.0 11.0 0.00 0.00 0.00 54 1016.9
20180816182313 95 192 5.0 10.0 0.00 0.00 0.00 56 1017.1
20180816181820 94 213 6.0 10.0 0.00 0.00 0.00 55 1017.1
20180816181313 94 222 4.0 8.0 0.00 0.00 0.00 54 1017.2
20180816180820 94 186 4.0 9.0 0.00 0.00 0.00 54 1017.4
20180816180312 94 208 5.0 11.0 0.00 0.00 0.00 54 1017.5
20180816175822 94 159 6.0 11.0 0.00 0.00 0.00 56 1017.6
20180816175312 93 193 4.0 9.0 0.00 0.00 0.00 57 1017.6
20180816174819 93 172 3.0 9.0 0.00 0.00 0.00 58 1017.6
20180816174312 94 227 5.0 9.0 0.00 0.00 0.00 57 1017.7
20180816173822 93 187 5.0 8.0 0.00 0.00 0.00 58 1017.8
20180816173315 93 169 2.0 8.0 0.00 0.00 0.00 59 1017.9
20180816172824 93 218 5.0 8.0 0.00 0.00 0.00 57 1018.0
20180816172315 93 181 4.0 11.0 0.00 0.00 0.00 59 1018.1
20180816171821 92 181 7.0 13.0 0.00 0.00 0.00 60 1018.2
20180816171314 92 177 6.0 13.0 0.00 0.00 0.00 60 1018.2
20180816170819 92 218 3.0 13.0 0.00 0.00 0.00 62 1018.3
20180816170312 92 186 7.0 13.0 0.00 0.00 0.00 61 1018.3
20180816165821 92 204 6.0 10.0 0.00 0.00 0.00 64 1018.3
20180816165316 91 201 3.0 9.0 0.00 0.00 0.00 64 1018.5
20180816164821 91 212 4.0 10.0 0.00 0.00 0.00 64 1018.5
20180816164314 91 183 2.0 10.0 0.00 0.00 0.00 65 1018.5
20180816163820 91 216 7.0 11.0 0.00 0.00 0.00 63 1018.5
20180816163313 91 212 3.0 10.0 0.00 0.00 0.00 66 1018.6
20180816162822 90 201 6.0 12.0 0.00 0.00 0.00 66 1018.5
20180816162311 90 191 6.0 16.0 0.00 0.00 0.00 68 1018.6
20180816161817 89 214 6.0 9.0 0.00 0.00 0.00 66 1018.6
20180816161313 89 160 3.0 10.0 0.00 0.00 0.00 70 1018.5
20180816160820 89 152 5.0 13.0 0.00 0.00 0.00 69 1018.5
20180816160313 89 195 5.0 13.0 0.00 0.00 0.00 70 1018.6
20180816155823 88 168 3.0 9.0 0.00 0.00 0.00 72 1018.6
20180816155313 88 145 5.0 10.0 0.00 0.00 0.00 72 1018.5
20180816154818 88 160 6.0 10.0 0.00 0.00 0.00 72 1018.5
20180816154311 89 189 3.0 11.0 0.00 0.00 0.00 75 1018.6
20180816153818 88 147 6.0 11.0 0.00 0.00 0.00 72 1018.7
20180816153311 88 147 5.0 15.0 0.00 0.00 0.00 72 1018.6
20180816152824 88 202 5.0 15.0 0.00 0.00 0.00 75 1018.6
20180816152314 88 184 4.0 11.0 0.00 0.00 0.00 75 1018.5
20180816151821 87 168 5.0 11.0 0.00 0.00 0.00 77 1018.4
20180816151314 87 230 3.0 10.0 0.00 0.00 0.00 78 1018.4
20180816150821 86 193 4.0 14.0 0.00 0.00 0.00 81 1018.3
20180816150313 86 170 6.0 14.0 0.00 0.00 0.00 79 1018.4
20180816145822 86 195 5.0 11.0 0.00 0.00 0.00 81 1018.4
20180816145312 85 208 3.0 11.0 0.00 0.00 0.00 82 1018.4
20180816144818 85 206 5.0 11.0 0.00 0.00 0.00 83 1018.5
20180816144315 84 186 2.0 9.0 0.00 0.00 0.00 85 1018.5
20180816143820 84 222 5.0 9.0 0.00 0.00 0.00 85 1018.6
20180816143312 84 184 4.0 6.0 0.00 0.00 0.00 85 1018.5
20180816142821 84 192 2.0 5.0 0.00 0.00 0.00 87 1018.5
20180816142311 83 174 1.0 5.0 0.00 0.00 0.00 89 1018.5
20180816141818 82 181 2.0 6.0 0.00 0.00 0.00 89 1018.5
20180816141311 82 180 3.0 6.0 0.00 0.00 0.00 90 1018.5
20180816140817 81 139 2.0 5.0 0.00 0.00 0.00 92 1018.5
20180816140314 81 135 3.0 5.0 0.00 0.00 0.00 93 1018.5
20180816135823 80 128 3.0 5.0 0.00 0.00 0.00 93 1018.5
20180816135313 80 162 2.0 3.0 0.00 0.00 0.00 94 1018.5
20180816134819 79 155 1.0 3.0 0.00 0.00 0.00 95 1018.5
20180816134312 79 154 1.0 3.0 0.00 0.00 0.00 95 1018.5
20180816133818 79 155 1.0 3.0 0.00 0.00 0.00 95 1018.6
20180816133311 79 154 1.0 2.0 0.00 0.00 0.00 96 1018.6
20180816132821 78 154 1.0 3.0 0.00 0.00 0.00 96 1018.5
20180816132312 78 155 1.0 3.0 0.00 0.00 0.00 96 1018.4
20180816131822 78 148 1.0 3.0 0.00 0.00 0.00 97 1018.4
20180816131314 77 170 0.0 2.0 0.00 0.00 0.00 97 1018.4
20180816130821 77 170 1.0 2.0 0.00 0.00 0.00 97 1018.4
20180816130314 76 170 0.0 1.0 0.00 0.00 0.00 97 1018.3
20180816125823 76 170 0.0 1.0 0.00 0.00 0.00 97 1018.2
20180816125313 76 170 0.0 1.0 0.00 0.00 0.00 97 1018.2
20180816124820 75 170 0.0 0.0 0.00 0.00 0.00 96 1018.3
20180816124312 75 170 0.0 0.0 0.00 0.00 0.00 97 1018.2
20180816123819 75 170 0.0 0.0 0.00 0.00 0.00 96 1018.2
20180816123316 75 170 0.0 0.0 0.00 0.00 0.00 96 1018.1
20180816122825 75 170 0.0 0.0 0.00 0.00 0.00 96 1018.0
20180816122316 75 169 0.0 0.0 0.00 0.00 0.00 96 1017.9
20180816121823 75 170 0.0 0.0 0.00 0.00 0.00 96 1017.9
20180816121316 75 170 0.0 0.0 0.00 0.00 0.00 96 1017.7
20180816120821 75 169 0.0 0.0 0.00 0.00 0.00 96 1017.7
20180816120313 75 170 0.0 0.0 0.00 0.00 0.00 96 1017.7
20180816115822 75 170 0.0 0.0 0.00 0.00 0.00 96 1017.6
20180816115317 75 170 0.0 0.0 0.00 0.00 0.00 96 1017.6
20180816114824 75 170 0.0 0.0 0.00 0.00 0.00 96 1017.5
20180816114317 75 170 0.0 0.0 0.00 0.00 0.00 96 1017.4
20180816113823 75 170 0.0 0.0 0.00 0.00 0.00 96 1017.3
20180816113315 75 170 0.0 1.0 0.00 0.00 0.00 96 1017.2
20180816112825 75 170 0.0 2.0 0.00 0.00 0.00 96 1017.2
20180816112315 75 170 0.0 2.0 0.00 0.00 0.00 95 1017.1
20180816111822 75 170 0.0 2.0 0.00 0.00 0.00 95 1017.1
20180816111315 75 169 0.0 1.0 0.00 0.00 0.00 95 1017.1
20180816110825 75 170 0.0 1.0 0.00 0.00 0.00 95 1017.1
20180816110318 75 170 1.0 2.0 0.00 0.00 0.00 96 1017.2
20180816105807 76 170 1.0 2.0 0.00 0.00 0.00 96 1017.1
20180816105318 75 170 0.0 1.0 0.00 0.00 0.00 95 1017.1
20180816104825 75 169 1.0 2.0 0.00 0.00 0.00 95 1017.1